Regional Weather Roundup
Issued by NWS

Home | Current Version | Previous Version | Graphics & Text | Print | Product List | Glossary Off
Versions: 1 2 3 4 5 6 7 8 9 10 11 12 13 14 15 16 17 18 19 20 21 22 23 24 25 26 27 28 29 30 31 32 33 34 35 36 37 38 39 40 41 42 43 44 45 46 47 48 49 50

197
ASUS43 KDMX 240303
RWRIA

WEATHER ROUNDUP FOR IOWA
NATIONAL WEATHER SERVICE DES MOINES IA
1000 PM CDT SAT JUL 23 2016

NOTE: "FAIR" INDICATES FEW OR NO CLOUDS BELOW 12,000 FEET WITH NO
SIGNIFICANT WEATHER AND/OR OBSTRUCTIONS TO VISIBILITY.

* - THESE STATIONS ARE NOT NWS STATIONS...THUS NOT UNDER NWS
QUALITY CONTROL.  THEY ALSO DO NOT REPORT WEATHER SUCH
AS PRECIPITATION OR FOG.

IAZ001>003-012>014-020>022-031>034-043>046-240400-
   NORTHWEST IOWA

CITY           SKY/WX    TMP DP  RH WIND       PRES   REMARKS
CARROLL *      CLOUDY    79  77  94 S6        29.81R HX  83
CHEROKEE *     CLEAR     80  78  94 S7        29.78R HX  88
DENISON *      CLOUDY    82  77  83 S13G18    29.78R HX  91
LE MARS *      CLEAR     82  77  83 S7        29.77S HX  91
SHELDON *      CLEAR     81  79  94 S7        29.77R HX  89
SIOUX CITY     CLEAR     83  77  82 S5        29.77R HX  92
SPENCER        CLEAR     79  76  90 S5        29.78R HX  83
STORM LAKE *   CLOUDY    79  77  94 S7        29.80R HX  83
$$

IAZ055>058-069>071-079>083-090>094-240400-
   SOUTHWEST IOWA

CITY           SKY/WX    TMP DP  RH WIND       PRES   REMARKS
ATLANTIC *     CLEAR     81  77  89 S9        29.81R HX  88
CLARINDA *       N/A     79  75  89 MISG      29.85R HX  82
COUNCIL BLFS *   N/A     81  77  89 S7        29.80S HX  88
CRESTON *      CLEAR     79  73  83 S12       29.86R HX  82
HARLAN  *      CLOUDY    81  77  89 S5        29.84R HX  88
LAMONI         CLOUDY    81  77  88 S7        29.86R HX  88
RED OAK *      CLOUDY    82  77  83 S7G13     29.82R HX  91
SHENANDOAH *   CLOUDY    82  77  83 S9G15     29.82R HX  91
$$

IAZ047>049-059>061-072>074-084-240400-
   CENTRAL IOWA

CITY           SKY/WX    TMP DP  RH WIND       PRES   REMARKS
AMES           CLEAR     80  77  90 S7        29.81R HX  87
ANKENY *         N/A    N/A N/A N/A MISG        N/A
BOONE *          N/A     81  77  89 S8        29.81R HX  88
CHARITON *       N/A    N/A N/A N/A MISG        N/A
DES MOINES     PTCLDY    84  77  79 S7        29.82R HX  94
GRINNELL*      CLEAR     82  76  84 S8        29.85S HX  89
KNOXVILLE *    CLEAR     81  77  89 S7        29.83R HX  88
MARSHALLTOWN   CLEAR     82  78  88 S8        29.82R HX  91
NEWTON *       CLEAR     81  79  94 S8        29.83S HX  89
PELLA *        CLEAR     82  76  83 S6        29.85R HX  88
PERRY *          N/A     79  78  96 S7        29.81S HX  83
$$

IAZ004>006-015-016-023>025-035-036-240400-
   NORTH CENTRAL IOWA

CITY           SKY/WX    TMP DP  RH WIND       PRES   REMARKS
ALGONA *       CLEAR     79  77  94 CALM      29.79R HX  83
ESTHERVILLE    CLEAR     78  76  93 S5        29.78R HX  81
FORT DODGE *   CLOUDY    82  75  78 S12       29.80R HX  89
MASON CITY     CLOUDY    78  77  96 SE8       29.82R HX  81
FOREST CITY *    N/A     73  73 100 CALM      29.81R
IOWA FALLS *     N/A     81  79  92 S7        29.82R HX  90
$$

IAZ007>011-017>019-026>030-037>042-050>054-066-240400-
   NORTHEAST IOWA

CITY           SKY/WX    TMP DP  RH WIND       PRES   REMARKS
CEDAR RAPIDS   CLEAR     75  75 100 S5        29.85R
CHARLES CITY * PTCLDY    73  73 100 SE8       29.83R
CLINTON *      CLOUDY    72  71  97 SE10      29.91S
DECORAH *      MOCLDY    70  70 100 SE7       29.84S
DUBUQUE        MOCLDY    72  70  93 SE14      29.89R
MONTICELLO *   CLOUDY    73  72  94 SE8       29.87R
OELWEIN *      CLEAR     73  72  94 SE12      29.85R
WATERLOO       CLEAR     76  72  87 SE12      29.81R
$$

IAZ064-065-067-068-078-240400-
   EAST CENTRAL IOWA

CITY           SKY/WX    TMP DP  RH WIND       PRES   REMARKS
DAVENPORT      CLOUDY    75  73  93 SE13      29.92R
IOWA CITY      CLEAR     78  76  93 E6        29.87R HX  81
MT. PLEASANT * CLEAR     84  84  98 SE6       29.89R HX 104
MUSCATINE *    CLOUDY    84  81  89 SE8       29.88R HX  98
QUAD CITIES    CLOUDY    81  71  71 SE13      29.91R HX  85
$$

IAZ062-063-075>077-085>089-095>099-240400-
   SOUTHEAST IOWA

CITY           SKY/WX    TMP DP  RH WIND       PRES   REMARKS
BURLINGTON     CLEAR     84  81  90 S7        29.89R HX  99
FAIRFIELD *    CLEAR     82  77  83 S7        29.87S HX  91
KEOKUK *       CLEAR     86  81  84 S7        29.88R HX 102
CENTERVILLE *    N/A     81  77  89 CALM      29.89R HX  88
OTTUMWA        CLEAR     81  75  82 S6        29.86R HX  87
WASHINGTON *   CLEAR     82  81  94 SE7       29.88R HX  95
$$

ABBREVIATIONS USED IN REMARKS
   TC - TEMPERATURES IN CELSIUS
  WCI - WIND CHILL INDEX
   HX - HEAT INDEX
  VSB - VISIBILITY
$$





USA.gov is the U.S. government's official web portal to all federal, state and local government web resources and services.